Погода в Ивделе

Россия / Свердловская область     60°41′50″N   60°25′02″E
темп.,
°C
ветер,
м/с
пор.,
м/с
влажн.,
%
обл.,
%
осадки,
мм/ч
давл.,
гПа
погр.,
м
12 апреля, пн
пн1223:00+2зюз3108463 0.0 1028281
02:000зюз289092 0.0 1029124
05:00+3зюз27926 0.0 1030176
08:00+3зюз39855 0.0 1031740
11:00+7з512683 0.0 10321643
14:00+7зсз510580 0.0 10331454
17:00+7з411653 0.0 10351616
20:00+3з39795 0.0 1037242
13 апреля, вт
вт1323:00+1з3108713 0.0 1038206
02:00+1зюз288743 0.0 1038149
05:00+1зюз3108180 0.0 1038215
08:00+4зюз41367100 0.0 1037631
11:00+8зюз51355100 0.0 1035823
14:00+11зюз41047100 0.0 1034924
17:00+10зюз3750100 0.0 1032540
20:00+6юз2369100 0.0 103048
14 апреля, ср
ср1423:00+5юз2971100 0.0 1028176
02:00+8з61769100 0.0 1025647
05:00+8з51482100 0.0 1025523
08:00+8зюз41084100 0.0 1026495
11:00+10зюз51181100 0.0 1026487
14:00+12з41173100 0.0 1024740
17:00+13з41168100 0.0 1023958
20:00+10зюз397819 0.0 1022226
15 апреля, чт
чт1523:00+8зюз310825 0.0 1021248
02:00+8зюз3117876 0.0 1019243
05:00+9зюз4127020 0.0 1017425
08:00+11зюз51563100 0.0 1016707
11:00+14з61354100 0.0 10151173
14:00+15з6115157 0.0 10151705
17:00+6ссв4880100 0.1 1017378
20:00+5ссв4889100 1.2 1019685
16 апреля, пт
пт1623:00+4с3780100 2.2 1019716
02:00+3ссв2672100 0.0 1020664
05:00+1ссв2588100 0.1 1020457
08:00−1св4982100 1.7 1021675
11:00−1всв4863100 2.1 1022987
14:00−2всв4887100 1.0 1021771
17:00−2в4993100 3.8 1019815
20:00−4всв51094100 2.8 1019847